Location: Newark
(33.2833°N, 8.3333°W)
Time: 03:10:44
(UTC+00:00)

Envisat - Pass Details

Date: 25 September 2019
Orbit: 764 x 766 km, 98.1° (Epoch: 19 October)

Event Time Altitude Azimuth Distance (km) Brightness Sun altitude
Rises 19:33:47 0° 193° (SSW) 3,217 6.3 -14.9°
Reaches altitude 10° 19:36:21 10° 204° (SSW) 2,294 5.6 -15.4°
Maximum altitude 19:40:42 29° 263° (W) 1,387 5.1 -16.3°
Drops below altitude 10° 19:45:04 10° 323° (NW) 2,306 6.2 -17.2°
Sets 19:47:41 0° 335° (NNW) 3,236 6.8 -17.7°
